Home   Weather   Lucerne   Past weeks
Flag for Switzerland

Past Weather in Lucerne, Lucerne, Switzerland — Yesterday and Last 2 Weeks

Now
57 °F

Cool.


Feels Like: 57 °F
Forecast: 93 / 64 °F
Wind: 2 mph from West

Location: Giswil

Current Time: Jun 25, 2019 at 5:47:21 am

Latest Report: Jun 25, 2019 at 5:00 am


Visibility: N/A

Pressure: 30.11 "Hg

Humidity: 100%

Dew Point: 57 °F

Location of LucerneLocation

Past Weather in Lucerne — Graph

°F

Lucerne Temperature Yesterday

Maximum temperature yesterday: 86 °F (at 6:00 pm)
Minimum temperature yesterday: 55 °F (at 6:00 am)
Average temperature yesterday: 71 °F

High & Low Weather Summary for the Past Weeks

 TemperatureHumidityPressure
High86 °F (Jun 24, 6:00 pm)100% (Jun 10, 3:00 pm)30.20 "Hg (Jun 10, 3:00 pm)
Low49 °F (Jun 14, 6:00 am)26% (Jun 14, 10:00 pm)29.77 "Hg (Jun 14, 10:00 pm)
Average63 °F80%29.99 "Hg
* Reported Jun 10 4:00 am — Jun 25 4:00 am, Lucerne. Weather by CustomWeather, © 2019

Note: Actual official high and low records may vary slightly from our data, if they occured in-between our weather recording intervals... More about our weather records

Advertising

Lucerne Weather History for the Previous 24 Hours

Scroll right to see more
 ConditionsComfort  
Time TempWeatherWind HumidityBarometerVisibility
4:00 am
Tue, Jun 25
59 °FCool.1 mph98%30.10 "HgN/A
3:00 am60 °FCool.2 mph98%30.09 "HgN/A
2:00 am62 °FCool.1 mph98%30.09 "HgN/A
1:00 am64 °FMild.1 mph94%30.08 "HgN/A
12:00 am65 °FMild.2 mph90%30.07 "HgN/A
11:00 pm
Mon, Jun 24
68 °FMild.5 mph85%30.06 "HgN/A
10:00 pm70 °FMild.3 mph84%30.05 "HgN/A
9:00 pm74 °FMild.2 mph77%30.03 "HgN/A
8:00 pm79 °FWarm.2 mph69%30.01 "HgN/A
7:00 pm85 °FWarm.2 mph49%29.98 "HgN/A
6:00 pm86 °FWarm.2 mph47%29.98 "HgN/A
5:00 pm85 °FWarm.2 mph48%29.98 "HgN/A
4:00 pm84 °FWarm.2 mph50%29.99 "HgN/A
3:00 pm83 °FWarm.3 mph50%30.00 "HgN/A
2:00 pm81 °FWarm.2 mph50%30.01 "HgN/A
1:00 pm78 °FWarm.2 mph56%30.02 "HgN/A
12:00 pm77 °FMild.1 mph55%30.03 "HgN/A
11:00 am74 °FMild.2 mph65%30.05 "HgN/A
10:00 am71 °FMild.2 mph68%30.06 "HgN/A
9:00 am67 °FMild.1 mph78%30.08 "HgN/A
8:00 am65 °FMild.No wind91%30.09 "HgN/A
7:00 am60 °FCool.1 mph100%30.11 "HgN/A
6:00 am55 °FCool.1 mph100%30.11 "HgN/A
5:00 am56 °FCool.1 mph99%30.10 "HgN/A
Weather by CustomWeather, © 2019

See weather overview